Location: Gniazdowice
(50.2124°N, 20.2673°E)
Time: 23:21:49
(UTC+00:00)

SL-16 R/B - Pass Details

Date: 23 May 2024
Orbit: 985 x 1007 km, 99.7° (Epoch: 22 June)

Event Time Altitude Azimuth Distance (km) Brightness Sun altitude
Rises 01:47:40 0° 182° (S) 3,720 5.1 -7.5°
Reaches altitude 10° 01:50:15 10° 188° (S) 2,776 4.4 -7.2°
Maximum altitude 01:56:14 47° 261° (W) 1,321 2.9 -6.5°
Drops below altitude 10° 02:02:16 10° 334° (NNW) 2,794 5.1 -5.8°
Sets 02:04:53 0° 340° (NNW) 3,747 5.9 -5.5°
